User: anonymous
Location: Unspecified
(0.0000°N, 0.0000°E)
Time: 03:31:21
(UTC+02:00)
Language:

Cosmos 540 Rocket - Orbit

View from above orbital plane
View from above orbital plane
View from above satellite
View from above satellite

Ground track
Ground track

The orbit data is extracted from the following two-line orbital elements,

1 06324U 72104B   14258.35410582  .00000214  00000-0  71685-4 0  3472
2 06324 074.0785 169.5707 0009716 214.5872 279.3208 14.42973110190479
Epoch (UTC): 15 September 2014 08:29:54
Eccentricity: 0.0009716
inclination: 74.0785°
perigee height: 742 km
apogee height: 755 km
right ascension of ascending node: 169.5707°
argument of perigee: 214.5872°
revolutions per day: 14.42973110
mean anomaly at epoch: 279.3208°
orbit number at epoch: 19047

The dashed part of the orbit path shows where the satellite is in the earth's shadow,  

DLR